Simultaneous Nadir Overpasses (SNOs) Predictions

Prediction of SNOs between AQUA and NOAA-19 Satellite Orbit:

Table of predicted SNOs for the next 14.0 days since TLE Epoch: 9/21/2024
Index Date (AQUA) Time (AQUA) Lat,Lon (AQUA) SZA (AQUA ) Date (NOAA-19) Time (NOAA-19) Lat,Lon (NOAA-19) SZA (NOAA-19 ) Distance(km) Time Diff (sec)
1 09/21/2024 18:16:06 75.09, -92.78 74.73 09/21/2024 18:15:02 75.02, -96.08 74.64 94.98 64
2 09/21/2024 19:05:37 -75.65, 73.30 104.71 09/21/2024 19:05:53 -75.66, 73.20 104.70 3.07 16
3 09/23/2024 22:05:07 -75.62, 28.55 103.91 09/23/2024 22:04:38 -75.66, 28.55 103.88 4.16 29
4 09/23/2024 22:54:29 75.68,-163.96 76.16 09/23/2024 22:55:29 75.68,-164.08 76.17 3.57 60
5 09/26/2024 01:04:36 -75.61, -16.25 103.10 09/26/2024 01:03:24 -75.60, -16.29 103.11 2.15 72
6 09/26/2024 01:53:59 75.67, 151.23 76.98 09/26/2024 01:54:15 75.66, 151.22 76.98 1.03 16
7 09/28/2024 04:53:26 75.64, 106.52 77.78 09/28/2024 04:53:00 75.63, 106.48 77.78 1.03 26
8 09/28/2024 05:42:48 -75.79, -86.27 102.07 09/28/2024 05:44:00 -75.81, -85.67 102.03 16.57 72
9 09/30/2024 07:52:52 75.62, 61.75 78.59 09/30/2024 07:51:45 75.59, 61.71 78.56 3.24 67
10 09/30/2024 08:42:12 -75.67,-130.74 101.35 09/30/2024 08:42:47 -75.68,-130.77 101.34 1.24 35
11 10/02/2024 11:41:37 -75.67,-175.55 100.53 10/02/2024 11:41:31 -75.67,-175.45 100.53 2.89 6
12 10/02/2024 12:31:07 76.09, -9.18 79.90 10/02/2024 12:32:14 76.10, -6.63 79.95 68.31 67
13 10/04/2024 14:41:01 -75.64, 139.73 99.74 10/04/2024 14:40:16 -75.64, 139.83 99.74 2.73 45



Historial Predications of SNOs between AQUA and NOAA-19
